Midland, MI

4:40 PM EST on December 13, 2017 (GMT -0500)
Barstow

Weather History for KIKW - November, 2013

Change the Weather History Date:

Monday, November 4, 2013

  Actual Average (KMBS) Record (KMBS)
Temperature  
Mean Temperature 41 °F -  
Max Temperature 50 °F 48 °F 75 °F (2015)
Min Temperature 32 °F 33 °F 21 °F (2006)
Degree Days  
Heating Degree Days 24    
Moisture  
Dew Point 29 °F    
Average Humidity 62    
Maximum Humidity 84    
Minimum Humidity 35    
Precipitation  
Precipitation 0.00 in - - ()
Sea Level Pressure  
Sea Level Pressure 30.36 in    
Wind  
Wind Speed 8 mph (SE)    
Max Wind Speed 21 mph    
Max Gust Speed 26 mph    
Visibility 10 miles    
Events      
Averages and records for this station are not official NWS values.
T = Trace of Precipitation, MM = Missing Value Source: NWS Daily Summary

Daily Weather History Graph

Daily Weather History Graph

Search for Another Location

Airport or City:

Trip Planner

Search our weather history database for the weather conditions in past years. The results will help you decide how hot, cold, wet, or windy it might be!

Date:

Astronomy

Nov. 04, 2013 Rise Set
Actual Time 7:17 AM EST 5:23 PM EST
Civil Twilight 6:46 AM EST 5:53 PM EST
Nautical Twilight 6:12 AM EST 6:27 PM EST
Astronomical Twilight 5:39 AM EST 7:01 PM EST
Moon 8:28 AM EST (11/4) 6:25 PM EST (11/4)
Length of Visible Light 11h 06m
Length of Day
10h 06m
New Moon, 2% of the Moon is Illuminated
Nov 4
New Moon
Nov 10
First Quarter
Nov 17
Full
Nov 25
Last Quarter
Dec 2
New

Hourly Weather History & Observations

Time (EST) Temp. Windchill Dew Point Humidity Pressure Visibility Wind Dir Wind Speed Gust Speed Precip Events Conditions
12:14 AM 34.7 °F 30.6 °F 29.3 °F 81% 30.44 in 10.0 mi ESE 4.6 mph - N/A   Clear
12:33 AM 34.7 °F 28.8 °F 29.3 °F 81% 30.44 in 10.0 mi SE 6.9 mph - N/A   Clear
12:54 AM 34.9 °F 29.9 °F 29.3 °F 80% 30.45 in 10.0 mi ESE 5.8 mph - N/A   Clear
1:14 AM 34.2 °F 29.0 °F 29.1 °F 82% 30.45 in 10.0 mi ESE 5.8 mph - N/A   Clear
1:33 AM 34.5 °F 29.4 °F 29.1 °F 81% 30.44 in 10.0 mi ESE 5.8 mph - N/A   Clear
1:54 AM 34.3 °F 27.7 °F 28.4 °F 79% 30.43 in 10.0 mi ESE 8.1 mph - N/A   Clear
2:13 AM 34.2 °F 29.0 °F 28.2 °F 79% 30.44 in 10.0 mi ESE 5.8 mph - N/A   Clear
2:33 AM 33.8 °F 28.6 °F 28.0 °F 79% 30.44 in 10.0 mi ESE 5.8 mph - N/A   Clear
2:54 AM 33.8 °F 27.7 °F 27.5 °F 78% 30.44 in 10.0 mi SE 6.9 mph - N/A   Clear
3:13 AM 33.4 °F 28.1 °F 27.3 °F 78% 30.44 in 10.0 mi ESE 5.8 mph - N/A   Clear
3:33 AM 32.9 °F 29.8 °F 27.1 °F 79% 30.44 in 10.0 mi ESE 3.5 mph - N/A   Clear
3:54 AM 32.7 °F 28.3 °F 26.6 °F 78% 30.43 in 10.0 mi East 4.6 mph - N/A   Clear
4:13 AM 33.1 °F 28.7 °F 26.6 °F 77% 30.42 in 10.0 mi East 4.6 mph - N/A   Clear
4:33 AM 33.1 °F 30.0 °F 26.6 °F 77% 30.43 in 10.0 mi ESE 3.5 mph - N/A   Clear
4:54 AM 33.1 °F 30.0 °F 27.0 °F 78% 30.44 in 10.0 mi ESE 3.5 mph - N/A   Clear
5:13 AM 33.3 °F 27.9 °F 27.5 °F 79% 30.43 in 10.0 mi ESE 5.8 mph - N/A   Clear
5:34 AM 33.4 °F 29.1 °F 28.0 °F 81% 30.43 in 10.0 mi ESE 4.6 mph - N/A   Clear
5:54 AM 33.4 °F 28.1 °F 28.4 °F 82% 30.44 in 10.0 mi ESE 5.8 mph - N/A   Clear
6:13 AM 33.8 °F 28.6 °F 29.3 °F 84% 30.43 in 10.0 mi ESE 5.8 mph - N/A   Clear
6:34 AM 34.7 °F 28.8 °F 30.2 °F 84% 30.44 in 10.0 mi SE 6.9 mph - N/A   Clear
6:54 AM 35.4 °F 29.0 °F 31.1 °F 84% 30.43 in 10.0 mi SE 8.1 mph - N/A   Clear
7:13 AM 36.0 °F 28.5 °F 31.6 °F 84% 30.42 in 10.0 mi SE 10.4 mph - N/A   Clear
7:34 AM 36.5 °F 30.3 °F 32.0 °F 84% 30.42 in 10.0 mi SE 8.1 mph - N/A   Clear
7:53 AM 36.9 °F 29.6 °F 32.0 °F 83% 30.43 in 10.0 mi SE 10.4 mph - N/A   Clear
8:12 AM 37.6 °F 30.5 °F 32.0 °F 80% 30.43 in 10.0 mi SE 10.4 mph - N/A   Clear
8:37 AM 39.2 °F 32.0 °F 32.0 °F 75% 30.43 in 10.0 mi SE 11.5 mph - N/A   Clear
8:54 AM 39.2 °F 32.5 °F 31.8 °F 75% 30.43 in 10.0 mi SE 10.4 mph 16.1 mph N/A   Clear
9:13 AM 40.3 °F 33.9 °F 31.5 °F 71% 30.43 in 10.0 mi SE 10.4 mph - N/A   Clear
9:34 AM 41.0 °F 33.9 °F 31.1 °F 68% 30.42 in 10.0 mi SE 12.7 mph 17.3 mph N/A   Clear
9:53 AM 42.3 °F 34.8 °F 30.2 °F 62% 30.42 in 10.0 mi SE 15.0 mph 20.7 mph N/A   Clear
10:13 AM 42.8 °F 37.0 °F 29.3 °F 59% 30.42 in 10.0 mi SE 10.4 mph - N/A   Clear
10:34 AM 43.9 °F 38.3 °F 28.9 °F 56% 30.41 in 10.0 mi SSE 10.4 mph 16.1 mph N/A   Clear
10:53 AM 43.9 °F 38.8 °F 27.5 °F 53% 30.41 in 10.0 mi SSE 9.2 mph 18.4 mph N/A   Clear
11:13 AM 45.1 °F 39.5 °F 27.7 °F 50% 30.41 in 10.0 mi SE 11.5 mph 17.3 mph N/A   Clear
11:34 AM 47.3 °F - 26.6 °F 45% 30.40 in 10.0 mi SE 15.0 mph 19.6 mph N/A   Clear
11:53 AM 49.3 °F - 25.2 °F 39% 30.39 in 10.0 mi SSE 15.0 mph 23.0 mph N/A   Clear
12:14 PM 49.6 °F - 23.2 °F 35% 30.38 in 10.0 mi SSE 18.4 mph 23.0 mph N/A   Clear
12:33 PM 50.0 °F - 23.4 °F 35% 30.36 in 10.0 mi SE 20.7 mph 26.5 mph N/A   Clear
12:54 PM 49.8 °F - 23.7 °F 36% 30.35 in 10.0 mi SSE 18.4 mph 24.2 mph N/A   Clear
1:14 PM 48.4 °F - 23.4 °F 37% 30.36 in 10.0 mi SSE 17.3 mph - N/A   Clear
1:33 PM 48.2 °F - 24.3 °F 39% 30.35 in 10.0 mi SSE 11.5 mph 21.9 mph N/A   Clear
1:54 PM 49.6 °F - 25.5 °F 39% 30.34 in 10.0 mi SE 13.8 mph 20.7 mph N/A   Clear
2:14 PM 49.1 °F - 25.2 °F 39% 30.32 in 10.0 mi SE 15.0 mph 20.7 mph N/A   Clear
2:33 PM 49.1 °F - 25.2 °F 39% 30.32 in 10.0 mi SE 13.8 mph 18.4 mph N/A   Clear
2:54 PM 49.1 °F - 25.3 °F 40% 30.30 in 10.0 mi SE 11.5 mph 16.1 mph N/A   Clear
3:14 PM 49.1 °F - 26.1 °F 41% 30.30 in 10.0 mi SE 10.4 mph - N/A   Clear
3:33 PM 49.1 °F - 25.5 °F 40% 30.30 in 10.0 mi SE 12.7 mph 20.7 mph N/A   Clear
3:54 PM 49.8 °F - 25.9 °F 39% 30.30 in 10.0 mi ESE 11.5 mph 16.1 mph N/A   Clear
4:14 PM 49.1 °F - 26.8 °F 42% 30.29 in 10.0 mi SE 10.4 mph 19.6 mph N/A   Clear
4:33 PM 48.7 °F - 27.0 °F 43% 30.29 in 10.0 mi SE 11.5 mph 18.4 mph N/A   Clear
4:54 PM 47.5 °F - 26.8 °F 45% 30.27 in 10.0 mi SE 10.4 mph 18.4 mph N/A   Clear
5:14 PM 47.3 °F - 27.3 °F 46% 30.28 in 10.0 mi SE 11.5 mph - N/A   Clear
5:33 PM 46.4 °F 41.5 °F 27.1 °F 47% 30.27 in 10.0 mi ESE 10.4 mph 17.3 mph N/A   Clear
5:54 PM 45.9 °F 40.8 °F 27.5 °F 49% 30.26 in 10.0 mi ESE 10.4 mph 20.7 mph N/A   Clear
6:12 PM 45.5 °F 39.2 °F 28.0 °F 51% 30.26 in 10.0 mi SE 13.8 mph 19.6 mph N/A   Clear
6:33 PM 45.1 °F 39.1 °F 28.8 °F 53% 30.26 in 10.0 mi SE 12.7 mph 17.3 mph N/A   Clear
6:54 PM 45.0 °F 39.3 °F 29.5 °F 55% 30.27 in 10.0 mi SE 11.5 mph 18.4 mph N/A   Scattered Clouds
7:14 PM 44.6 °F 38.8 °F 30.2 °F 57% 30.27 in 10.0 mi SE 11.5 mph - N/A   Scattered Clouds
7:34 PM 44.8 °F 38.7 °F 30.7 °F 58% 30.27 in 10.0 mi SE 12.7 mph 17.3 mph N/A   Mostly Cloudy
7:54 PM 45.0 °F 39.3 °F 31.1 °F 58% 30.26 in 10.0 mi SSE 11.5 mph 18.4 mph N/A   Overcast
8:14 PM 44.6 °F 40.2 °F 31.6 °F 60% 30.26 in 10.0 mi SSE 8.1 mph 16.1 mph N/A   Scattered Clouds
8:33 PM 44.6 °F 39.7 °F 32.0 °F 61% 30.26 in 10.0 mi SSE 9.2 mph - N/A   Mostly Cloudy
8:54 PM 44.6 °F 39.2 °F 32.0 °F 61% 30.26 in 10.0 mi SSE 10.4 mph - N/A   Overcast
9:13 PM 44.8 °F 39.4 °F 32.0 °F 61% 30.27 in 10.0 mi SSE 10.4 mph 17.3 mph N/A   Overcast
9:33 PM 44.6 °F 39.2 °F 32.0 °F 61% 30.27 in 10.0 mi SSE 10.4 mph 17.3 mph N/A   Overcast
9:54 PM 44.6 °F 39.7 °F 32.0 °F 61% 30.25 in 10.0 mi South 9.2 mph 16.1 mph N/A   Overcast
10:13 PM 44.4 °F 40.0 °F 32.0 °F 62% 30.25 in 10.0 mi South 8.1 mph - N/A   Overcast
10:34 PM 44.6 °F 40.7 °F 32.2 °F 62% 30.25 in 10.0 mi South 6.9 mph - N/A   Overcast
10:53 PM 44.6 °F 41.4 °F 32.2 °F 62% 30.24 in 10.0 mi South 5.8 mph - N/A   Overcast
11:14 PM 44.6 °F 41.4 °F 32.5 °F 63% 30.24 in 10.0 mi South 5.8 mph - N/A   Overcast
11:33 PM 44.6 °F 43.1 °F 32.9 °F 64% 30.24 in 10.0 mi South 3.5 mph - N/A   Overcast
11:53 PM 45.1 °F 40.8 °F 33.1 °F 63% 30.24 in 10.0 mi South 8.1 mph - N/A   Overcast